Location: D�rnast
(49.6426°N, 11.9755°E)
Time: 23:47:33
(UTC+00:00)

ISS - Pass Details

Date: 02 December 2021
Orbit: 413 x 422 km, 51.6° (Epoch: 24 January)

Event Time Altitude Azimuth Distance (km) Brightness Sun altitude
Rises 18:25:24 0° 288° (WNW) 2,383 1.1 -30.0°
Reaches altitude 10° 18:27:39 10° 278° (W) 1,513 0.0 -30.4°
Enters shadow 18:28:21 15° 271° (W) 1,262 -0.5 -30.5°
